Waarnemingen

Advertentie
Mijn weer
Kvikkjokk Arrenjarka A, Zweden (2119): temperatuur & dauwpunt: 08.12.2018 11:00:00 - 14.12.2018 11:00:00 (CET)Kvikkjokk Arrenjarka A, Zweden (2119): windsnelheid & windstoten: 08.12.2018 11:00:00 - 14.12.2018 11:00:00 (CET)Kvikkjokk Arrenjarka A, Zweden (2119): windrichting: 08.12.2018 11:00:00 - 14.12.2018 11:00:00 (CET)Kvikkjokk Arrenjarka A, Zweden (2119): luchtdruk: 08.12.2018 11:00:00 - 14.12.2018 11:00:00 (CET)Kvikkjokk Arrenjarka A, Zweden (2119): zicht: 08.12.2018 11:00:00 - 14.12.2018 11:00:00 (CET)Kvikkjokk Arrenjarka A, Zweden (2119): neerslag: 08.12.2018 11:00:00 - 14.12.2018 11:00:00 (CET)
Datum & Tijd tt [°C] td [°C] ff [km/u] ff [kn] fx [km/u] fx [kn] dd ppp [hPa] vv [km] rr [mm]
14.12.2018 11:00:00 -22,9 -25,6 2 1 8 5 W 1033,0 50 0,0
14.12.2018 10:00:00 - - 0 0 8 5 N 1033,1 50 0,0
14.12.2018 09:00:00 -23,3 -26,1 3 1 5 3 NNW 1032,9 50 0,0
14.12.2018 08:00:00 -23,2 -26,0 3 1 5 3 N 1032,5 50 0,0
14.12.2018 07:00:00 -22,9 -25,6 4 2 7 4 WNW 1032,2 50 0,0
14.12.2018 06:00:00 -22,5 -25,1 4 2 7 4 W 1031,9 50 0,0
14.12.2018 05:00:00 -22,4 -25,0 3 1 7 4 NW 1031,7 50 0,0
14.12.2018 04:00:00 -22,0 -24,5 0 0 6 3 N 1031,6 50 0,0
14.12.2018 03:00:00 -21,8 -24,6 2 1 9 5 ZO 1031,6 50 0,0
14.12.2018 02:00:00 -21,4 -24,1 0 0 9 5 N 1031,3 50 0,0
14.12.2018 01:00:00 -21,1 -23,8 0 0 8 5 N 1031,3 50 0,0
14.12.2018 00:00:00 -20,8 -23,3 3 2 8 5 NW 1031,2 50 0,0
13.12.2018 23:00:00 -20,4 -23,1 3 2 6 4 NW 1031,4 50 0,0
13.12.2018 22:00:00 -19,7 -22,1 4 2 7 4 NW 1031,2 50 0,0
13.12.2018 21:00:00 -19,1 -21,4 2 1 5 3 NW 1031,3 50 0,0
13.12.2018 20:00:00 -18,4 -21,0 2 1 5 3 NNW 1031,0 50 0,0
13.12.2018 19:00:00 -17,2 -19,5 3 2 6 3 WNW 1030,7 50 0,0
13.12.2018 18:00:00 -16,5 -18,7 3 2 6 4 NW 1030,5 50 0,0
13.12.2018 17:00:00 -16,6 -18,5 3 2 6 4 WNW 1030,6 50 0,0
13.12.2018 16:00:00 -17,6 -19,8 0 0 4 2 N 1030,7 50 0,0
13.12.2018 15:00:00 -18,3 -20,5 0 0 5 3 N 1030,9 50 0,0
13.12.2018 14:00:00 -19,4 -21,8 0 0 5 3 N 1031,2 50 0,0
13.12.2018 13:00:00 -19,7 -22,4 0 0 4 2 N 1031,2 50 0,0
13.12.2018 12:00:00 -20,6 -24,3 0 0 5 3 N 1031,6 50 0,0
13.12.2018 11:00:00 -22,3 -25,8 3 1 6 3 W 1032,1 50 0,0
13.12.2018 10:00:00 -24,4 -28,1 2 1 6 3 NNW 1032,4 50 0,0
13.12.2018 09:00:00 -24,7 -28,6 2 1 6 3 WNW 1032,6 50 0,0
13.12.2018 08:00:00 -24,5 -28,4 2 1 5 3 ZZO 1032,3 50 0,0
13.12.2018 07:00:00 -24,6 -28,7 0 0 5 3 N 1032,1 50 0,0
13.12.2018 06:00:00 -24,5 -28,4 0 0 7 4 N 1032,0 50 0,0
13.12.2018 05:00:00 -24,8 -28,8 0 0 6 3 N 1032,4 50 0,0
13.12.2018 04:00:00 -25,7 -29,7 0 0 7 4 N 1032,7 50 0,0
13.12.2018 03:00:00 -25,7 -29,7 4 2 7 4 WNW 1033,1 50 0,0
13.12.2018 02:00:00 -25,7 -29,7 5 3 6 3 NW 1033,1 50 0,0
13.12.2018 01:00:00 -25,5 -29,7 0 0 6 3 N 1033,2 50 0,0
13.12.2018 00:00:00 -25,1 -29,0 3 2 8 5 NW 1033,0 50 0,0
12.12.2018 23:00:00 -24,8 -29,0 2 1 8 5 ZO 1033,1 50 0,0
12.12.2018 22:00:00 -25,1 -29,0 4 2 7 4 N 1033,5 50 0,0
12.12.2018 21:00:00 -25,3 -29,3 2 1 6 4 NO 1034,0 50 0,0
12.12.2018 20:00:00 -25,3 -29,3 2 1 6 4 ZZO 1034,3 50 0,0
12.12.2018 19:00:00 -25,5 -29,7 0 0 6 3 N 1034,5 50 0,0
12.12.2018 18:00:00 -25,4 -29,7 0 0 8 4 N 1034,6 50 0,0
12.12.2018 17:00:00 -25,3 -29,2 6 3 8 4 NW 1034,3 50 0,0
12.12.2018 16:00:00 -25,4 -29,4 4 2 8 4 NW 1034,4 50 0,0
12.12.2018 15:00:00 -25,1 -29,1 3 2 8 4 N 1034,2 50 0,0
12.12.2018 14:00:00 -24,8 -28,7 3 2 6 4 WNW 1034,2 50 0,0
12.12.2018 13:00:00 -25,0 -29,0 3 1 6 3 N 1034,4 50 0,0
12.12.2018 12:00:00 -24,8 -28,8 4 2 8 4 NW 1034,1 50 0,0
12.12.2018 11:00:00 -24,9 -28,8 3 2 8 5 WNW 1034,1 50 0,0
12.12.2018 10:00:00 -25,2 -29,2 5 3 8 5 NW 1034,2 50 0,0
12.12.2018 09:00:00 -24,8 -28,8 3 1 7 4 WNW 1033,4 50 0,0
12.12.2018 08:00:00 -24,9 -28,9 5 3 6 3 NW 1033,3 50 0,0
12.12.2018 07:00:00 -24,9 -28,9 4 2 7 4 NW 1033,1 50 0,0
12.12.2018 06:00:00 -24,6 -29,8 5 3 7 4 NW 1032,9 50 0,0
12.12.2018 05:00:00 -24,1 -29,5 3 1 7 4 W 1032,9 50 0,0
12.12.2018 04:00:00 -23,3 -28,5 3 2 7 4 NW 1032,6 50 0,0
12.12.2018 03:00:00 -23,6 -28,8 5 3 7 4 NW 1032,7 43 0,0
12.12.2018 02:00:00 -22,4 -27,9 2 1 6 4 Z 1032,2 50 0,0
12.12.2018 01:00:00 -21,9 -27,2 2 1 6 4 NO 1031,8 41 0,0
12.12.2018 00:00:00 -21,3 -26,3 4 2 6 4 NNW 1031,3 50 0,0
11.12.2018 23:00:00 -21,8 -26,9 4 2 7 4 NW 1031,3 50 0,0
11.12.2018 22:00:00 -21,2 -26,2 3 1 7 4 NW 1030,8 50 0,0
11.12.2018 21:00:00 -19,7 -24,8 4 2 6 3 NW 1030,0 50 0,0
11.12.2018 20:00:00 -19,4 -24,1 4 2 7 4 NNW 1029,6 50 0,0
11.12.2018 19:00:00 -18,6 -23,2 4 2 8 5 N 1028,8 50 0,0
11.12.2018 18:00:00 -17,0 -21,5 3 2 8 5 N 1028,3 50 0,0
11.12.2018 17:00:00 -14,5 -18,8 4 2 7 4 N 1027,5 50 0,0
11.12.2018 16:00:00 -12,1 -16,4 3 2 5 3 N 1027,0 50 0,0
11.12.2018 15:00:00 -11,5 -15,5 3 2 5 3 NW 1025,9 50 0,0
11.12.2018 14:00:00 -10,5 -15,4 0 0 4 2 N 1025,5 50 0,0
11.12.2018 13:00:00 -9,9 -14,2 0 0 5 3 N 1025,7 50 0,0
11.12.2018 12:00:00 -10,9 -15,1 2 1 7 4 N 1025,2 50 0,0
11.12.2018 11:00:00 -12,8 -17,0 0 0 7 4 N 1025,0 50 0,0
11.12.2018 10:00:00 -13,9 -18,4 4 2 7 4 NNW 1024,5 50 0,0
11.12.2018 09:00:00 -12,7 -17,4 0 0 6 3 N 1023,8 50 0,0
11.12.2018 08:00:00 -10,2 -14,8 0 0 7 4 N 1022,5 50 0,0
11.12.2018 07:00:00 -7,5 -11,3 4 2 6 3 NW 1021,8 50 0,0
11.12.2018 06:00:00 -6,7 -10,2 4 2 7 4 N 1021,2 50 0,0
11.12.2018 05:00:00 -5,6 -9,2 3 2 7 4 NW 1020,5 50 0,0
11.12.2018 04:00:00 -5,4 -9,0 4 2 5 3 NW 1020,1 50 0,0
11.12.2018 03:00:00 -5,5 -9,2 2 1 6 3 N 1019,2 50 0,0
11.12.2018 02:00:00 -5,5 -9,2 4 2 7 4 NNW 1018,5 50 0,0
11.12.2018 01:00:00 -5,5 -9,1 2 1 8 4 WZW 1017,9 50 0,0
11.12.2018 00:00:00 -6,4 -9,9 0 0 7 4 N 1017,2 50 0,0
10.12.2018 23:00:00 -6,5 -10,4 2 1 7 4 NW 1016,5 50 0,0
10.12.2018 22:00:00 -6,6 -10,5 0 0 9 5 N 1015,7 50 0,0
10.12.2018 21:00:00 -6,5 -10,2 3 2 9 5 NW 1014,9 50 0,0
10.12.2018 20:00:00 -6,0 -10,1 0 0 5 3 N 1014,1 50 0,0
10.12.2018 19:00:00 -5,7 -9,6 2 1 4 2 WNW 1013,1 50 0,0
10.12.2018 18:00:00 -5,4 -9,6 2 1 6 4 NW 1012,2 50 0,0
10.12.2018 17:00:00 -4,9 -8,5 0 0 6 4 N 1011,3 50 0,0
10.12.2018 16:00:00 -5,0 -9,1 0 0 5 3 N 1010,2 50 0,0
10.12.2018 15:00:00 -5,1 -9,0 2 1 5 3 NW 1009,1 50 0,0
10.12.2018 14:00:00 -4,7 -9,2 0 0 4 2 N 1008,0 48 -
10.12.2018 13:00:00 -4,6 -8,9 0 0 3 2 N 1007,1 26 0,1
10.12.2018 12:00:00 -4,7 -8,6 0 0 5 3 N 1006,2 9 0,1
10.12.2018 11:00:00 -4,7 -8,8 0 0 5 3 N 1005,2 2,5 0,2
10.12.2018 10:00:00 -4,8 -8,7 3 2 4 2 NW 1004,0 1,7 0,3
10.12.2018 09:00:00 -5,0 -8,7 3 2 4 2 NW 1002,9 1,6 0,5
10.12.2018 08:00:00 -5,3 -9,4 0 0 4 2 N 1001,9 4,7 0,1
10.12.2018 07:00:00 -5,3 -9,4 2 1 4 2 NW 1000,8 4,3 0,1
10.12.2018 06:00:00 -5,1 -9,2 0 0 5 3 N 999,9 41 -
10.12.2018 05:00:00 -5,1 -9,0 3 1 6 3 NW 998,9 18 0,0
10.12.2018 04:00:00 -5,2 -9,1 3 2 6 3 NW 998,4 4,4 0,1
10.12.2018 03:00:00 -5,3 -9,0 3 2 5 3 NW 997,5 32 0,2
10.12.2018 02:00:00 -5,5 -9,2 3 2 4 2 NNW 996,7 2,3 0,3
10.12.2018 01:00:00 -5,5 -9,6 0 0 4 2 N 996,2 13 0,1
10.12.2018 00:00:00 -5,5 -9,2 2 1 6 3 WNW 995,6 26 0,1
09.12.2018 23:00:00 -5,5 -9,6 0 0 6 3 N 995,0 3,0 0,4
09.12.2018 22:00:00 -5,9 -10,0 0 0 5 3 N 994,4 6 0,2
09.12.2018 21:00:00 -5,8 -9,9 0 0 5 3 N 993,7 6 0,3
09.12.2018 20:00:00 -5,9 -10,0 0 0 4 2 N 993,2 9 0,0
09.12.2018 19:00:00 -5,9 -10,0 0 0 4 2 N 992,6 10 0,2
09.12.2018 18:00:00 -6,0 -10,1 0 0 4 2 N 992,1 8 0,1
09.12.2018 17:00:00 -5,9 -10,3 0 0 4 2 N 991,5 50 0,1
09.12.2018 16:00:00 -6,0 -9,9 2 1 6 3 NNW 991,1 4,7 0,2
09.12.2018 15:00:00 -5,9 -10,0 0 0 7 4 N 990,7 50 0,0
09.12.2018 14:00:00 -5,9 -9,6 4 2 7 4 NW 990,4 7 0,2
09.12.2018 13:00:00 -5,6 -9,3 4 2 6 4 NNW 990,0 7 0,2
09.12.2018 12:00:00 -5,7 -9,3 3 2 6 3 N 989,6 16 0,2
09.12.2018 11:00:00 -5,6 -9,7 0 0 7 4 N 989,5 1,5 0,5
09.12.2018 10:00:00 -5,5 -9,4 2 1 5 3 Z 989,2 1,4 0,5
09.12.2018 09:00:00 -5,5 -9,7 0 0 12 7 N 988,6 1,6 0,5
09.12.2018 08:00:00 -5,3 -8,7 2 1 13 7 Z 988,2 1,8 0,6
09.12.2018 07:00:00 -5,2 -8,3 5 3 13 7 O 987,8 1,5 0,6
09.12.2018 06:00:00 -5,2 -8,1 4 2 13 7 ZO 987,7 1,1 0,7
09.12.2018 05:00:00 -6,1 -8,7 4 2 7 4 NNW 987,5 1,1 1,0
09.12.2018 04:00:00 -6,9 -10,1 3 2 8 5 WZW 987,8 1,1 0,6
09.12.2018 03:00:00 -7,5 -10,8 0 0 6 4 N 988,2 1,4 0,5
09.12.2018 02:00:00 -7,8 -11,3 0 0 6 3 N 988,8 1,8 0,5
09.12.2018 01:00:00 -8,0 -11,6 0 0 4 2 N 989,1 2,2 0,5
09.12.2018 00:00:00 -8,2 -12,0 0 0 4 2 N 989,8 2,1 0,5
08.12.2018 23:00:00 -8,6 -12,6 2 1 5 3 N 990,4 19 0,0
08.12.2018 22:00:00 -9,2 -13,0 0 0 5 3 N 990,8 50 0,0
08.12.2018 21:00:00 -10,0 -14,4 2 1 5 3 NNW 991,3 11 0,2
08.12.2018 20:00:00 -8,5 -12,8 0 0 5 3 N 991,6 2,4 0,3
08.12.2018 19:00:00 -8,4 -12,7 0 0 4 2 N 992,1 2,6 0,2
08.12.2018 18:00:00 -8,4 -12,9 0 0 4 2 N 992,5 2,8 0,3
08.12.2018 17:00:00 -8,6 -13,6 0 0 4 2 N 992,9 3,1 0,2
08.12.2018 16:00:00 -8,7 -13,0 0 0 4 2 N 993,4 3,2 0,3
08.12.2018 15:00:00 -8,5 -13,2 0 0 3 2 N 993,7 1,4 0,4
08.12.2018 14:00:00 -8,6 -12,7 0 0 3 2 N 994,2 19 0,1
08.12.2018 13:00:00 -8,6 -12,9 0 0 4 2 N 994,4 10 0,1
08.12.2018 12:00:00 -8,7 -13,0 0 0 3 2 N 994,9 3,9 0,1
08.12.2018 11:00:00 -9,0 -13,1 0 0 4 2 N 995,2 47 0,0

tt = temperatuur
td = dauwpunt
ff = windsnelheid
fx = windstoten
dd = windrichting
ppp = luchtdruk
vv = zicht
rr = neerslag

Weerstations in de omgeving